Temperature
6 6 6 6 6 6 6 6 6 6 5 5 5 5 5 5 5 5 4 4 4 4 4 4 4 4 3 3 3 3 3 3 3 2 2 2 2 2
6 6 6 6 6 6 6 6 6 5 5 5 5 5 4 4 4 4 4 4 4 4 4 3 3 3 3 3 2 2 2 2 2 2 2 2 1 1
6 6 6 6 5 5 5 5 5 5 5 4 4 4 4 4 4 4 4 4 4 3 3 3 3 3 2 2 2 2 2 2 2 1 1 1 1 1
5 5 5 5 5 5 5 5 5 4 4 4 4 4 4 4 3 3 3 3 3 3 3 3 2 2 2 2 2 1 1 1 1 1 1 1 0 0
5 5 5 5 5 5 4 4 4 4 4 4 3 3 3 3 3 3 3 3 3 3 2 2 2 2 1 1 1 1 1 1 1 0 0 0 -0 -0
4 4 4 4 4 4 4 4 4 3 3 3 3 3 2 2 2 3 2 2 2 2 2 2 1 1 1 1 1 0 0 0 -0 -0 -0 -1 -1 -1
4 4 4 4 4 4 3 3 3 3 3 3 2 2 2 2 2 2 2 2 2 1 1 1 1 1 1 0 0 -0 -0 -0 -1 -1 -1 -1 -1 -2
3 3 3 3 3 3 3 3 3 3 2 2 2 2 2 2 1 1 1 1 1 1 0 1 0 0 0 -0 -0 -0 -1 -1 -1 -1 -2 -2 -2 -2
3 3 3 3 3 2 2 2 2 2 2 2 2 2 1 1 1 0 0 -0 -0 -0 -1 -0 -0 -0 -0 -1 -1 -1 -1 -1 -2 -2 -2 -2 -3 -3
2 2 2 2 2 2 2 2 2 2 1 1 1 1 1 0 0 -0 -1 -1 -1 -1 -1 -1 -1 -1 -1 -1 -1 -2 -2 -2 -2 -2 -3 -3 -3 -3
2 2 2 2 1 1 1 1 1 1 1 1 1 0 0 -0 -0 -1 -1 -2 -2 -2 -2 -2 -2 -2 -2 -1 -2 -2 -2 -3 -3 -3 -3 -3 -3 -4
1 1 1 1 1 1 1 1 1 1 0 0 0 -0 -0 -1 -1 -1 -2 -2 -3 -3 -2 -3 -3 -3 -3 -3 -2 -3 -3 -3 -3 -3 -3 -4 -4 -4
1 1 0 0 0 0 0 0 -0 -0 -0 -0 -1 -1 -1 -1 -2 -2 -2 -2 -3 -3 -3 -4 -4 -4 -4 -4 -3 -3 -3 -4 -4 -4 -4 -4 -4 -5
-0 -0 -0 -0 -0 -1 -1 -1 -1 -1 -1 -1 -1 -2 -2 -2 -2 -2 -3 -3 -3 -3 -4 -4 -4 -4 -5 -5 -5 -4 -4 -4 -4 -4 -4 -4 -5 -5
-1 -1 -1 -1 -1 -1 -1 -2 -2 -2 -2 -2 -2 -2 -2 -3 -3 -3 -3 -4 -4 -4 -4 -5 -5 -5 -5 -6 -5 -5 -5 -5 -5 -5 -5 -5 -5 -5
-1 -2 -2 -2 -2 -2 -2 -2 -2 -2 -2 -3 -3 -3 -3 -3 -4 -4 -4 -4 -4 -4 -5 -5 -5 -6 -6 -6 -6 -6 -5 -6 -5 -6 -6 -6 -6 -6
-2 -2 -2 -2 -3 -3 -3 -3 -3 -3 -3 -3 -3 -4 -4 -4 -4 -4 -5 -5 -5 -5 -5 -5 -6 -6 -6 -6 -6 -6 -6 -6 -6 -6 -6 -6 -6 -6
-3 -3 -3 -3 -3 -3 -3 -3 -4 -4 -4 -4 -4 -4 -4 -4 -5 -5 -5 -5 -6 -6 -6 -6 -6 -6 -7 -6 -6 -6 -6 -6 -6 -7 -7 -7 -6 -6
-3 -3 -3 -3 -3 -4 -4 -4 -4 -4 -4 -5 -5 -5 -5 -5 -5 -6 -6 -6 -6 -6 -6 -7 -7 -7 -8 -7 -7 -7 -7 -7 -7 -7 -7 -7 -7 -6
-3 -3 -4 -4 -4 -4 -4 -5 -5 -5 -5 -5 -5 -5 -6 -6 -6 -6 -6 -6 -7 -7 -7 -7 -7 -8 -8 -8 -8 -7 -7 -7 -7 -7 -7 -7 -7 -7
-4 -4 -4 -4 -4 -5 -5 -5 -5 -5 -6 -6 -6 -6 -6 -6 -6 -7 -7 -7 -7 -7 -7 -7 -8 -8 -8 -8 -8 -8 -7 -8 -8 -8 -8 -8 -7 -7
-5 -5 -5 -5 -5 -5 -5 -6 -6 -6 -6 -6 -6 -6 -7 -7 -7 -7 -7 -7 -8 -8 -8 -8 -8 -8 -8 -8 -8 -8 -8 -8 -8 -8 -8 -8 -8 -8
-5 -5 -5 -6 -6 -6 -6 -6 -6 -6 -6 -7 -7 -7 -7 -7 -7 -7 -8 -8 -8 -8 -8 -8 -8 -8 -8 -8 -8 -8 -8 -8 -8 -8 -8 -8 -8 -8
Wind_Speed
5 5 3 3 3 3 3 4 5 3 4 3 2 2 4 4 5 4 4 5 5 5 5 4 5 5 5 6 6 7 8 8 9 10 11 11 12 13
4 5 4 2 3 3 3 3 3 4 3 3 3 2 3 3 4 5 5 5 6 6 5 5 6 6 6 6 7 8 9 9 10 11 12 12 13 13
4 5 5 4 3 3 3 3 3 3 3 2 1 2 2 3 2 4 5 5 6 6 6 7 7 7 7 7 7 8 9 10 11 12 13 13 13 14
5 5 5 4 5 4 4 4 4 4 4 4 2 2 3 3 2 2 3 4 5 6 7 7 7 7 7 7 8 9 10 11 12 12 13 13 14 15
6 6 6 6 6 4 4 4 4 4 4 4 3 2 2 1 1 1 2 3 4 5 6 7 8 8 8 9 10 10 11 12 12 13 13 14 14 15
5 6 7 7 7 7 5 5 5 5 4 4 3 3 2 2 2 2 2 2 2 4 6 7 8 9 10 10 10 11 11 12 13 13 14 14 15 15
4 5 5 7 8 8 6 6 6 6 5 4 4 3 3 3 3 3 3 2 2 3 2 4 6 7 8 10 11 12 12 13 13 14 14 15 15 16
5 4 4 6 8 10 9 9 9 8 7 6 5 5 5 5 4 3 3 1 3 2 2 4 4 4 7 9 11 12 13 13 13 14 14 15 15 16
5 4 4 4 6 5 6 7 8 10 10 7 7 7 6 6 5 4 4 4 4 3 2 4 3 5 7 10 12 13 13 14 13 14 14 15 15 16
4 5 5 4 5 5 5 4 4 6 7 6 7 7 7 6 6 6 5 4 2 2 3 4 3 4 5 8 12 13 13 13 13 13 14 15 16 16
3 4 5 5 7 7 5 4 4 4 6 8 8 8 8 9 8 4 3 2 3 3 3 3 2 3 4 4 8 10 11 12 12 13 14 14 15 15
2 3 5 6 7 7 5 5 5 5 4 3 4 5 5 6 8 6 5 4 3 3 3 3 2 1 3 2 3 5 8 11 12 13 13 14 14 11
2 2 2 5 6 7 6 5 6 4 4 4 3 3 3 3 4 5 6 5 5 4 4 3 2 2 3 4 3 4 6 7 8 10 12 13 13 11
3 2 2 4 5 5 4 5 6 4 3 3 3 3 3 4 4 5 6 7 7 7 7 5 3 3 3 5 5 3 4 6 7 7 8 11 11 12
2 3 3 3 3 3 3 4 4 3 3 3 4 4 3 3 3 3 3 4 4 6 7 7 5 4 4 5 6 5 5 5 5 4 5 5 6 7
1 1 1 2 1 1 2 2 2 2 3 4 3 3 2 2 3 3 3 2 2 3 4 7 7 5 5 6 6 7 5 4 4 5 5 6 8 8
1 0 0 0 1 1 1 1 1 2 2 2 2 2 2 3 3 2 2 2 3 4 3 2 4 5 6 6 6 7 7 6 6 5 5 7 7 7
1 1 1 2 2 2 2 2 2 2 2 2 3 3 3 3 3 2 2 3 4 4 4 3 2 2 2 4 8 7 6 6 5 5 5 7 8 7
1 2 2 2 3 3 2 2 3 2 2 3 3 3 3 3 3 3 3 4 4 4 4 3 3 3 4 6 4 7 6 5 5 5 5 6 7 8
1 2 2 2 3 3 3 2 2 2 3 3 3 3 3 3 3 4 4 4 4 4 4 3 4 5 6 6 5 5 8 6 5 6 6 5 6 10
1 1 1 2 2 2 3 3 3 3 3 3 3 4 4 3 4 4 4 6 5 4 5 5 6 6 3 2 4 5 5 8 8 6 6 6 6 5
1 2 2 2 2 2 2 2 3 3 3 3 3 3 4 4 4 5 4 4 4 4 5 4 3 2 2 4 6 6 6 6 8 11 11 10 5 4
2 2 2 2 2 2 2 3 3 3 3 3 3 3 3 3 3 4 4 4 4 4 4 4 3 3 4 4 5 6 7 7 5 5 6 10 12 15
Wind_Direction
190 183 183 188 179 177 171 170 166 189 222 219 210 197 190 194 203 204 213 218 226 239 252 265 270 271 273 274 282 287 292 296 297 297 298 298 299 300
184 178 182 185 176 166 167 170 168 176 203 212 211 191 177 187 205 210 217 225 225 237 248 257 263 266 267 273 277 283 287 288 290 292 294 296 297 298
182 181 188 178 178 169 164 168 172 165 195 227 193 170 172 186 209 218 226 231 234 239 249 255 260 263 263 267 273 279 282 284 286 289 291 293 294 296
193 189 196 184 181 178 178 182 184 179 181 204 203 196 200 196 201 219 235 234 246 245 249 254 257 259 262 267 273 276 279 281 283 286 289 290 292 292
197 199 202 190 193 186 184 190 189 183 175 181 200 196 200 185 187 223 241 246 258 251 250 253 255 259 266 272 274 274 274 277 279 283 284 287 288 289
204 205 203 197 197 188 189 191 183 174 170 178 192 199 204 189 173 203 245 235 260 265 251 254 258 264 268 270 271 271 270 272 276 278 281 283 284 285
207 209 210 203 200 195 192 188 182 180 179 185 196 194 199 191 203 195 222 256 263 238 238 255 261 263 267 267 271 270 270 272 275 277 279 281 283 283
208 211 211 204 206 207 207 201 194 188 189 191 200 204 213 205 194 191 199 209 267 233 214 262 249 249 259 260 264 270 272 273 274 276 278 280 281 282
204 202 208 207 202 196 206 209 213 213 204 193 197 208 207 201 188 196 203 212 234 229 218 264 244 252 259 260 267 271 272 273 273 275 279 281 282 283
203 202 204 201 200 190 184 194 215 218 212 206 206 207 206 197 192 201 209 222 244 236 207 245 248 254 269 262 265 269 271 273 275 278 282 284 285 285
210 206 203 204 208 198 185 196 218 227 222 218 220 221 220 215 199 178 184 206 254 248 205 220 247 269 273 264 261 267 274 277 280 284 286 288 286 286
221 218 214 214 214 208 196 196 220 229 206 207 216 223 220 218 212 201 193 209 232 250 213 204 229 282 293 266 257 266 278 282 284 286 289 291 289 290
220 221 220 217 220 219 215 210 226 217 193 194 205 209 206 206 213 213 205 201 214 234 212 192 220 234 252 280 281 266 269 277 280 282 287 289 287 285
218 214 215 219 226 229 231 226 228 220 191 186 200 213 214 217 220 221 222 223 226 231 224 210 220 231 252 275 280 273 269 270 271 278 281 284 285 286
209 205 219 228 233 240 235 233 230 211 197 204 217 225 219 215 212 219 228 236 248 250 237 230 221 230 237 257 271 277 288 280 263 262 272 274 274 277
208 194 216 222 220 237 255 250 231 210 207 214 217 219 201 201 213 210 223 226 245 266 253 239 232 222 241 252 259 271 270 267 272 277 281 282 276 267
176 109 74 221 215 226 240 245 234 219 224 216 211 213 214 219 231 223 219 220 237 253 266 259 253 247 240 241 257 259 263 267 264 272 281 285 278 267
216 200 224 228 227 228 231 242 240 235 229 223 220 217 221 225 233 234 231 230 241 248 251 254 261 300 300 267 236 247 257 263 268 269 268 277 283 276
216 208 221 226 230 225 226 235 244 241 232 225 223 220 221 223 226 235 238 238 242 246 248 240 231 235 267 282 267 233 245 270 279 278 267 263 274 280
235 225 233 233 232 231 230 233 241 241 233 228 228 226 220 219 226 233 235 237 245 250 253 246 230 226 240 261 272 275 260 257 266 275 279 279 275 280
274 257 250 244 240 234 233 233 236 240 235 229 233 228 221 217 228 235 241 250 253 249 252 254 247 254 251 255 274 278 274 265 264 266 272 283 287 286
289 278 269 257 251 242 241 241 242 239 232 232 236 229 224 222 230 236 239 244 249 251 256 262 262 260 236 247 264 277 287 291 290 283 268 257 257 262
298 290 281 267 262 260 248 243 244 246 238 234 233 229 224 231 236 237 241 244 248 253 258 264 266 255 252 250 263 273 280 290 293 297 288 280 274 271
Height
1498 1500 1502 1504 1505 1507 1508 1510 1512 1511 1513 1514 1516 1517 1519 1520 1522 1523 1523 1525 1525 1526 1526 1527 1527 1526 1526 1526 1525 1525 1524 1523 1522 1521 1520 1519 1518 1517
1494 1495 1497 1499 1501 1502 1504 1505 1506 1508 1508 1509 1511 1513 1515 1516 1517 1518 1519 1520 1521 1522 1522 1522 1522 1522 1521 1521 1520 1520 1519 1518 1517 1516 1515 1514 1513 1512
1490 1491 1493 1495 1497 1498 1500 1501 1502 1503 1504 1505 1507 1509 1510 1512 1513 1514 1515 1515 1516 1517 1517 1517 1517 1517 1516 1516 1515 1515 1514 1513 1512 1511 1510 1509 1508 1507
1486 1487 1489 1491 1492 1493 1495 1496 1497 1499 1500 1500 1503 1504 1506 1507 1508 1509 1510 1511 1511 1511 1512 1512 1512 1511 1511 1510 1510 1509 1508 1507 1507 1506 1504 1503 1502 1501
1482 1483 1485 1486 1487 1488 1490 1491 1493 1494 1495 1496 1497 1499 1501 1502 1504 1505 1505 1506 1506 1506 1506 1506 1506 1506 1505 1505 1504 1503 1502 1501 1501 1500 1498 1497 1496 1494
1477 1478 1480 1481 1483 1484 1485 1487 1488 1489 1490 1491 1493 1494 1496 1497 1498 1499 1500 1500 1500 1501 1501 1500 1500 1500 1500 1499 1498 1497 1496 1495 1494 1493 1492 1490 1489 1488
1472 1474 1475 1476 1478 1480 1481 1482 1483 1484 1485 1486 1488 1489 1490 1491 1492 1493 1493 1494 1494 1495 1495 1494 1494 1494 1493 1493 1492 1491 1490 1489 1487 1486 1485 1484 1482 1481
1467 1468 1470 1471 1473 1474 1476 1477 1478 1479 1480 1481 1482 1483 1484 1486 1487 1487 1488 1488 1488 1489 1488 1487 1488 1487 1487 1486 1485 1484 1483 1482 1481 1479 1478 1477 1475 1474
1462 1464 1465 1466 1468 1469 1470 1472 1473 1474 1475 1476 1477 1478 1479 1481 1481 1482 1482 1482 1482 1483 1482 1480 1481 1480 1480 1479 1479 1478 1477 1476 1474 1473 1471 1470 1469 1467
1458 1459 1461 1462 1463 1464 1465 1466 1467 1469 1470 1471 1472 1473 1474 1475 1476 1476 1476 1476 1476 1477 1476 1474 1473 1473 1473 1472 1472 1472 1471 1469 1467 1466 1464 1463 1462 1460
1454 1455 1456 1457 1459 1460 1461 1461 1462 1463 1464 1465 1466 1467 1468 1469 1470 1470 1470 1470 1469 1469 1470 1469 1467 1466 1465 1465 1465 1465 1464 1463 1461 1459 1458 1456 1455 1453
1449 1450 1452 1453 1454 1455 1455 1456 1456 1458 1459 1460 1461 1461 1462 1464 1464 1465 1465 1464 1463 1463 1463 1463 1462 1461 1458 1457 1458 1458 1457 1456 1454 1453 1451 1449 1448 1446
1445 1446 1447 1448 1449 1450 1450 1451 1452 1453 1453 1454 1454 1455 1457 1457 1458 1459 1459 1459 1458 1457 1458 1458 1456 1456 1454 1451 1450 1451 1450 1449 1447 1446 1444 1443 1441 1439
1441 1442 1443 1444 1444 1445 1446 1446 1447 1447 1447 1448 1448 1449 1450 1451 1452 1452 1453 1452 1452 1452 1452 1452 1451 1450 1449 1446 1444 1443 1443 1442 1441 1439 1437 1436 1434 1433
1437 1438 1439 1439 1440 1440 1441 1441 1441 1442 1442 1442 1442 1443 1444 1445 1446 1446 1446 1446 1446 1446 1446 1446 1445 1444 1444 1441 1439 1437 1436 1435 1434 1432 1431 1429 1427 1425
1433 1434 1435 1435 1435 1435 1436 1436 1436 1437 1437 1437 1437 1438 1438 1439 1439 1440 1440 1440 1439 1439 1440 1440 1440 1439 1437 1436 1434 1432 1431 1429 1427 1426 1424 1422 1420 1419
1429 1430 1430 1430 1430 1431 1431 1431 1431 1432 1432 1432 1432 1432 1433 1433 1433 1434 1434 1434 1433 1433 1433 1434 1434 1433 1431 1430 1428 1426 1425 1423 1422 1420 1418 1415 1414 1413
1426 1426 1426 1426 1426 1426 1427 1427 1427 1427 1427 1427 1427 1427 1427 1428 1428 1428 1428 1428 1428 1427 1427 1427 1427 1426 1425 1424 1424 1421 1419 1418 1416 1414 1412 1409 1407 1406
1422 1422 1422 1422 1422 1422 1422 1422 1422 1423 1423 1423 1423 1423 1423 1422 1423 1423 1423 1423 1422 1422 1422 1422 1421 1420 1419 1417 1416 1417 1414 1412 1410 1408 1407 1404 1401 1400
1418 1418 1418 1418 1418 1418 1418 1418 1418 1418 1418 1418 1418 1418 1418 1418 1418 1418 1417 1417 1417 1417 1417 1417 1416 1416 1415 1413 1410 1409 1409 1407 1405 1402 1401 1398 1396 1395
1415 1415 1414 1414 1414 1414 1413 1413 1413 1413 1413 1413 1413 1413 1413 1413 1413 1413 1413 1412 1412 1412 1411 1411 1411 1411 1410 1408 1406 1403 1403 1403 1400 1398 1395 1393 1390 1388
1411 1411 1411 1410 1410 1410 1409 1409 1409 1409 1408 1408 1408 1408 1408 1408 1408 1408 1408 1408 1407 1407 1406 1406 1406 1405 1405 1403 1401 1399 1397 1396 1395 1394 1392 1389 1387 1383
1408 1407 1407 1407 1406 1406 1405 1405 1404 1404 1404 1404 1403 1404 1404 1403 1403 1403 1403 1403 1403 1402 1402 1401 1401 1400 1399 1398 1396 1394 1393 1391 1389 1387 1386 1385 1383 1380